CW0029 Weather Reports


time (UTC)temp
C
wind
direction
speed
KPH
gust
KPH
rain 1hr
cm
rain 24hr
cm
rain mn
cm
humidity
%
barometer
mb
20260503072903 23 327 0.0 3.2 0.00 0.00 0.00 87 1013.4
20260503071904 23 336 4.8 11.3 0.00 0.00 0.00 85 1013.7
20260503071403 24 283 1.6 14.5 0.00 0.00 0.00 85 1013.7
20260503070904 24 297 9.7 14.5 0.00 0.00 0.00 85 1013.7
20260503070404 24 304 9.7 11.3 0.00 0.00 0.00 86 1013.7
20260503054404 24 291 0.0 0.0 0.00 0.00 0.00 85 1013.1
20260503053904 24 245 1.6 8.0 0.00 0.00 0.00 85 1013.1
20260503053405 25 196 3.2 9.7 0.00 0.00 0.00 85 1013.1
20260503052905 25 214 0.0 1.6 0.00 0.00 0.00 85 1013.7
20260503052405 25 253 0.0 0.0 0.00 0.00 0.00 85 1013.7
20260503051904 25 259 0.0 0.0 0.00 0.00 0.00 85 1014.0
20260503051405 25 210 0.0 1.6 0.00 0.00 0.00 84 1014.0
20260503050405 25 238 0.0 1.6 0.00 0.00 0.00 84 1014.2
20260503045904 25 265 0.0 0.0 0.00 0.00 0.00 84 1014.2
20260503045404 25 202 0.0 1.6 0.00 0.00 0.00 83 1014.2
20260503044905 25 267 0.0 1.6 0.00 0.00 0.00 82 1014.2
20260503044405 25 211 0.0 1.6 0.00 0.00 0.00 82 1014.3
20260503043904 25 196 0.0 1.6 0.00 0.00 0.00 82 1014.3
20260503043405 25 240 0.0 0.0 0.00 0.00 0.00 82 1014.1
20260503042905 25 260 1.6 4.8 0.00 0.00 0.00 82 1014.1
20260503042405 25 246 0.0 0.0 0.00 0.00 0.00 82 1014.1
20260503041904 25 205 0.0 0.0 0.00 0.00 0.00 82 1014.2
20260503041404 25 250 0.0 0.0 0.00 0.00 0.00 82 1014.2
20260503040405 25 300 0.0 1.6 0.00 0.00 0.00 82 1014.3
20260503035905 25 270 0.0 1.6 0.00 0.00 0.00 82 1014.3
20260503035405 25 244 0.0 0.0 0.00 0.00 0.00 83 1014.3
20260503034905 25 301 0.0 0.0 0.00 0.00 0.00 83 1014.3
20260503034405 25 270 0.0 0.0 0.00 0.00 0.00 83 1013.9
20260503033905 25 270 0.0 0.0 0.00 0.00 0.00 82 1013.9
20260503032404 25 287 0.0 0.0 0.00 0.00 0.00 82 1013.9
20260503031905 25 249 0.0 0.0 0.00 0.00 0.00 81 1013.8
20260503031404 25 283 0.0 0.0 0.00 0.00 0.00 81 1013.8
20260503030905 25 163 0.0 0.0 0.00 0.00 0.00 81 1013.9
20260503030405 25 271 0.0 0.0 0.00 0.00 0.00 81 1013.9
20260503025904 25 281 0.0 0.0 0.00 0.00 0.00 80 1013.9
20260503025405 26 330 0.0 0.0 0.00 0.00 0.00 80 1013.8
20260503023905 26 314 0.0 0.0 0.00 0.00 0.00 79 1013.9
20260503023405 26 164 0.0 0.0 0.00 0.00 0.00 79 1013.8
20260503022905 26 296 0.0 3.2 0.00 0.00 0.00 78 1013.8
20260503022405 26 272 0.0 9.7 0.00 0.00 0.00 78 1013.8
20260503021905 26 292 9.7 11.3 0.00 0.00 0.00 77 1013.8
20260503021405 26 306 4.8 8.0 0.00 0.00 0.00 76 1013.8
20260503020905 26 262 9.7 14.5 0.00 0.00 0.00 76 1013.6
20260503020404 27 289 11.3 16.1 0.00 0.00 0.00 74 1013.6
20260503015905 27 291 9.7 12.9 0.00 0.00 0.00 73 1013.6
20260503015405 27 270 4.8 14.5 0.00 0.00 0.00 72 1013.3
20260503014904 27 264 4.8 14.5 0.00 0.00 0.00 71 1013.3
20260503013905 28 239 6.4 9.7 0.00 0.00 0.00 70 1013.3
20260503013405 28 258 3.2 11.3 0.00 0.00 0.00 70 1013.1
20260503012905 28 285 4.8 12.9 0.00 0.00 0.00 69 1013.1
20260503012404 28 275 9.7 14.5 0.00 0.00 0.00 68 1013.1
20260503011905 28 218 8.0 9.7 0.00 0.00 0.00 68 1012.8
20260503011405 28 303 9.7 14.5 0.00 0.00 0.00 67 1012.8
20260503010904 28 151 8.0 11.3 0.00 0.00 0.00 66 1012.7
20260503010405 28 243 6.4 12.9 0.00 0.00 0.00 65 1012.7
20260503005905 28 251 6.4 12.9 0.00 0.00 0.00 65 1012.7
20260503005405 28 205 9.7 11.3 0.00 0.00 0.00 64 1012.6
20260503004404 29 202 6.4 9.7 0.00 0.00 0.00 62 1012.4
20260503003904 29 220 6.4 9.7 0.00 0.00 0.00 61 1012.4
20260503003405 29 249 6.4 9.7 0.00 0.00 0.00 60 1012.4
20260503002905 29 270 1.6 14.5 0.00 0.00 0.00 60 1012.4
20260503002404 30 221 8.0 14.5 0.00 0.00 0.00 59 1012.4
20260503001905 30 267 8.0 16.1 0.00 0.00 0.00 58 1012.2
20260503001405 30 180 8.0 14.5 0.00 0.00 0.00 57 1012.2
20260503000905 30 252 3.2 19.3 0.00 0.00 0.00 56 1011.8
20260503000404 30 345 3.2 14.5 0.00 0.00 0.00 55 1011.8
20260502235905 30 263 3.2 9.7 0.00 0.00 0.00 55 1011.8
20260502234904 31 248 1.6 11.3 0.00 0.00 0.00 53 1011.8
20260502234404 31 282 1.6 12.9 0.00 0.00 0.00 53 1011.5
20260502233906 31 251 1.6 9.7 0.00 0.00 0.00 52 1011.5
20260502233404 31 265 0.0 9.7 0.00 0.00 0.00 51 1011.4
20260502232905 31 248 4.8 9.7 0.00 0.00 0.00 50 1011.3
20260502232405 31 224 1.6 9.7 0.00 0.00 0.00 50 1011.3
20260502231905 32 270 1.6 8.0 0.00 0.00 0.00 50 1011.1
20260502231404 32 197 3.2 12.9 0.00 0.00 0.00 49 1011.1
20260502230904 32 216 1.6 11.3 0.00 0.00 0.00 49 1010.9
20260502230404 32 288 1.6 9.7 0.00 0.00 0.00 49 1010.9
20260502225404 32 267 3.2 9.7 0.00 0.00 0.00 48 1010.8
20260502224904 32 41 0.0 9.7 0.00 0.00 0.00 47 1010.8
20260502223904 32 244 4.8 12.9 0.00 0.00 0.00 46 1010.7
20260502223405 32 251 3.2 11.3 0.00 0.00 0.00 46 1010.7
20260502222905 33 222 4.8 12.9 0.00 0.00 0.00 46 1010.6
20260502221905 33 225 4.8 14.5 0.00 0.00 0.00 46 1010.5
20260502221404 33 245 3.2 14.5 0.00 0.00 0.00 45 1010.5
20260502220904 33 223 1.6 8.0 0.00 0.00 0.00 45 1010.6
20260502220405 34 276 11.3 20.9 0.00 0.00 0.00 43 1010.6
20260502215904 35 232 4.8 19.3 0.00 0.00 0.00 43 1010.6
20260502215404 35 218 8.0 19.3 0.00 0.00 0.00 43 1010.5
20260502213905 35 219 8.0 16.1 0.00 0.00 0.00 43 1010.4
20260502213404 35 307 8.0 11.3 0.00 0.00 0.00 42 1010.5
20260502212904 35 264 8.0 16.1 0.00 0.00 0.00 42 1010.5
20260502212405 35 248 12.9 20.9 0.00 0.00 0.00 42 1010.5
20260502211905 35 279 9.7 20.9 0.00 0.00 0.00 41 1010.4
20260502211405 35 248 8.0 19.3 0.00 0.00 0.00 41 1010.4
20260502210905 36 305 9.7 16.1 0.00 0.00 0.00 41 1010.3
20260502210404 35 242 9.7 20.9 0.00 0.00 0.00 41 1010.3
20260502204904 35 283 11.3 24.1 0.00 0.00 0.00 40 1010.4
20260502204404 35 323 9.7 24.1 0.00 0.00 0.00 41 1010.3
20260502203904 35 277 8.0 19.3 0.00 0.00 0.00 41 1010.3
20260502203404 35 291 12.9 16.1 0.00 0.00 0.00 40 1010.4
20260502202905 36 282 19.3 29.0 0.00 0.00 0.00 40 1010.4
20260502202404 35 270 11.3 19.3 0.00 0.00 0.00 41 1010.4
20260502201404 36 282 16.1 22.5 0.00 0.00 0.00 42 1010.6
20260502200904 36 272 11.3 22.5 0.00 0.00 0.00 40 1010.6
20260502195905 35 236 11.3 25.7 0.00 0.00 0.00 43 1010.6
20260502195405 36 237 8.0 16.1 0.00 0.00 0.00 43 1010.7
20260502194904 35 184 14.5 25.7 0.00 0.00 0.00 42 1010.7
20260502194405 35 281 12.9 20.9 0.00 0.00 0.00 44 1010.7
20260502193904 35 248 14.5 29.0 0.00 0.00 0.00 44 1010.7
20260502192904 36 284 19.3 24.1 0.00 0.00 0.00 42 1010.8
20260502192404 36 90 9.7 22.5 0.00 0.00 0.00 45 1010.8
20260502191904 36 270 16.1 27.4 0.00 0.00 0.00 43 1010.8
20260502191404 36 222 11.3 24.1 0.00 0.00 0.00 43 1010.8
20260502185904 36 211 16.1 22.5 0.00 0.00 0.00 45 1010.7
20260502185404 36 183 14.5 22.5 0.00 0.00 0.00 46 1010.8
20260502184904 35 262 17.7 22.5 0.00 0.00 0.00 46 1010.8
20260502184404 36 270 16.1 25.7 0.00 0.00 0.00 46 1010.9
20260502183905 35 221 9.7 29.0 0.00 0.00 0.00 47 1010.9
20260502183404 35 34 19.3 22.5 0.00 0.00 0.00 49 1011.0
20260502182904 35 254 14.5 25.7 0.00 0.00 0.00 49 1011.1
20260502181904 36 225 16.1 32.2 0.00 0.00 0.00 47 1011.2
20260502180905 35 238 11.3 20.9 0.00 0.00 0.00 50 1011.3
20260502180404 35 275 12.9 20.9 0.00 0.00 0.00 50 1011.3
20260502170404 33 234 9.7 16.1 0.00 0.00 0.00 59 1011.6
20260502163404 34 14 9.7 20.9 0.00 0.00 0.00 58 1011.9
20260502162904 33 242 16.1 20.9 0.00 0.00 0.00 59 1012.1
20260502162404 33 206 14.5 20.9 0.00 0.00 0.00 59 1012.1
20260502160904 33 229 9.7 29.0 0.00 0.00 0.00 58 1012.3
20260502160404 33 200 14.5 20.9 0.00 0.00 0.00 57 1012.3
20260502151404 32 232 9.7 16.1 0.00 0.00 0.00 62 1012.4
20260502150904 32 220 11.3 19.3 0.00 0.00 0.00 62 1012.3
20260502150404 32 202 9.7 12.9 0.00 0.00 0.00 63 1012.3
20260502123404 26 142 0.0 1.6 0.00 0.00 0.00 88 1012.2
20260502122904 26 137 0.0 0.0 0.00 0.00 0.00 88 1012.2
20260502122404 26 190 0.0 0.0 0.00 0.00 0.00 88 1012.2
20260502121904 26 196 0.0 0.0 0.00 0.00 0.00 88 1012.1
20260502121404 26 159 0.0 0.0 0.00 0.00 0.00 88 1012.1
20260502120904 25 243 0.0 0.0 0.00 0.00 0.00 90 1012.2
20260502120404 25 184 0.0 0.0 0.00 0.00 0.00 90 1012.2
20260502115904 25 189 0.0 0.0 0.00 0.00 0.00 91 1012.2
20260502114404 24 180 0.0 0.0 0.00 0.00 0.00 93 1012.2
20260502113904 24 192 0.0 0.0 0.00 0.00 0.00 93 1012.2
20260502113403 23 193 0.0 0.0 0.00 0.00 0.00 93 1012.3
20260502112904 23 177 0.0 0.0 0.00 0.00 0.00 94 1012.4
20260502111904 23 180 0.0 0.0 0.00 0.00 0.00 98 1012.4
20260502110903 22 165 0.0 0.0 0.00 0.00 0.00 99 1012.3
20260502105904 22 202 0.0 0.0 0.00 0.00 0.00 99 1012.3
20260502105404 22 202 0.0 0.0 0.00 0.00 0.00 99 1012.2
20260502104904 22 167 0.0 0.0 0.00 0.00 0.00 99 1012.2
20260502104404 22 190 0.0 0.0 0.00 0.00 0.00 99 1012.1
20260502103404 22 171 0.0 0.0 0.00 0.00 0.00 99 1012.1
20260502102903 22 199 0.0 0.0 0.00 0.00 0.00 99 1012.1
20260502102404 22 180 0.0 0.0 0.00 0.00 0.00 99 1012.1
20260502101904 22 180 0.0 0.0 0.00 0.00 0.00 99 1012.1
20260502101404 22 191 0.0 0.0 0.00 0.00 0.00 99 1012.1
20260502100403 22 202 0.0 0.0 0.00 0.00 0.00 99 1012.1
20260502091403 22 158 0.0 0.0 0.00 0.00 0.00 98 1012.3
20260502090904 22 137 0.0 0.0 0.00 0.00 0.00 98 1012.1
20260502090403 22 158 0.0 0.0 0.00 0.00 0.00 98 1012.1